Central Point, OR

6:16 PM PST on February 09, 2016 (GMT -0800)
Rogue Valley International-Medford

Weather History for KMFR - June, 2013

Change the Weather History Date:

Wednesday, June 12, 2013

  Actual Average Record
Temperature  
Mean Temperature 59 °F 66 °F  
Max Temperature 73 °F 80 °F 99 °F (1986)
Min Temperature 44 °F 51 °F 31 °F (1952)
Degree Days  
Heating Degree Days 6 2  
Month to date heating degree days 11 33  
Since 1 June heating degree days 11 33  
Since 1 July heating degree days 4013 4230  
Cooling Degree Days 0 3  
Month to date cooling degree days 69 27  
Year to date cooling degree days 104 65  
Since 1 June cooling degree days 69 27  
Growing Degree Days 8 (Base 50)    
Moisture  
Dew Point 39 °F    
Average Humidity 53    
Maximum Humidity 76    
Minimum Humidity 29    
Precipitation  
Precipitation 0.00 in 0.03 in 0.58 in (1948)
Month to date precipitation 0.00 0.34  
Year to date precipitation 3.74 9.18  
Snow  
Snow 0.00 in 0.00 in - ()
Month to date snowfall 0.0 0.0  
Since 1 July snowfall 1.7 4.1  
Snow Depth 0.00 in    
Sea Level Pressure  
Sea Level Pressure 30.12 in    
Wind  
Wind Speed 5 mph (NW)    
Max Wind Speed 17 mph    
Max Gust Speed 22 mph    
Visibility 10 miles    
Events      
T = Trace of Precipitation, MM = Missing Value Source: NWS Daily Summary

Daily Weather History Graph

Daily Weather History Graph

Search for Another Location

Airport or City:

Trip Planner

Search our weather history database for the weather conditions in past years. The results will help you decide how hot, cold, wet, or windy it might be!

Date:

Astronomy

Jun. 12, 2013 Rise Set
Actual Time 5:34 AM PDT 8:48 PM PDT
Civil Twilight 4:59 AM PDT 9:23 PM PDT
Nautical Twilight 4:14 AM PDT 10:08 PM PDT
Astronomical Twilight 3:20 AM PDT 11:02 PM PDT
Moon 9:22 AM PDT (6/12) 11:23 PM PDT (6/12)
Length of Visible Light 16h 24m
Length of Day
15h 14m
Waxing Crescent, 15% of the Moon is Illuminated
Jun 12
Waxing Crescent
Jun 16
First Quarter
Jun 23
Full
Jun 29
Last Quarter
Jul 8
New

Hourly Weather History & Observations

Time (PDT) Temp. Dew Point Humidity Pressure Visibility Wind Dir Wind Speed Gust Speed Precip Events Conditions
12:53 AM 50.0 °F 37.9 °F 63% 30.11 in 10.0 mi Calm Calm - N/A   Clear
1:53 AM 51.1 °F 39.0 °F 63% 30.11 in 10.0 mi Calm Calm - N/A   Clear
2:53 AM 46.0 °F 37.9 °F 73% 30.11 in 10.0 mi Calm Calm - N/A   Clear
3:53 AM 48.0 °F 39.0 °F 71% 30.11 in 10.0 mi Calm Calm - N/A   Clear
4:53 AM 44.1 °F 37.9 °F 79% 30.12 in 10.0 mi Calm Calm - N/A   Clear
5:53 AM 45.0 °F 37.9 °F 76% 30.14 in 10.0 mi Calm Calm - N/A   Clear
6:53 AM 46.9 °F 39.9 °F 77% 30.14 in 10.0 mi Calm Calm - N/A   Overcast
7:53 AM 48.9 °F 39.0 °F 69% 30.14 in 10.0 mi Calm Calm - N/A   Overcast
8:53 AM 51.1 °F 39.9 °F 66% 30.15 in 10.0 mi Calm Calm - N/A   Overcast
9:53 AM 54.0 °F 41.0 °F 62% 30.16 in 10.0 mi Calm Calm - N/A   Overcast
10:53 AM 57.9 °F 41.0 °F 53% 30.15 in 10.0 mi West 3.5 mph - N/A   Overcast
11:53 AM 59.0 °F 41.0 °F 51% 30.15 in 10.0 mi WNW 8.1 mph - N/A   Overcast
12:53 PM 62.1 °F 39.0 °F 43% 30.13 in 10.0 mi Calm Calm - N/A   Clear
1:53 PM 66.0 °F 39.0 °F 37% 30.12 in 10.0 mi WNW 5.8 mph - N/A   Clear
2:53 PM 66.9 °F 39.0 °F 36% 30.10 in 10.0 mi West 8.1 mph - N/A   Clear
3:53 PM 70.0 °F 39.0 °F 32% 30.08 in 10.0 mi West 10.4 mph - N/A   Clear
4:53 PM 72.0 °F 37.0 °F 28% 30.07 in 10.0 mi WNW 10.4 mph 17.3 mph N/A   Scattered Clouds
5:53 PM 71.1 °F 37.9 °F 30% 30.07 in 10.0 mi North 11.5 mph 19.6 mph N/A   Partly Cloudy
6:53 PM 68.0 °F 37.0 °F 32% 30.08 in 10.0 mi North 15.0 mph - N/A   Clear
7:53 PM 64.0 °F 37.9 °F 38% 30.11 in 10.0 mi North 16.1 mph - N/A   Clear
8:53 PM 61.0 °F 39.0 °F 44% 30.13 in 10.0 mi North 5.8 mph - N/A   Clear
9:53 PM 59.0 °F 39.0 °F 48% 30.15 in 10.0 mi NW 5.8 mph - N/A   Clear
10:53 PM 55.9 °F 37.9 °F 51% 30.16 in 10.0 mi West 3.5 mph - N/A   Clear
11:53 PM 52.0 °F 37.9 °F 59% 30.17 in 10.0 mi NNW 3.5 mph - N/A   Clear